Showing default

HAWK-9A, 59446

Orbit data source: Space-Track

HAWK-9A, 59446 is a payload satellite owned by HawkEye 360 (US) in LEO that was launched on Sun, 07 Apr 2024 UTC via an FALCON 9 launch vehicle from the Air Force Eastern Test Range (AFETR). Payload-class satellites include a variety of spacecraft equipped with specific instruments for various scientific and technological missions. These include communications satellites like Starlink; space stations such as the ISS; scientific satellites like the Hubble; Earth observation satellites from companies like Planet Labs, Umbra, and HawkEye 360; GPS; miniature CubeSats for education and research; and military/defense satellites.

Loading next visibility...
Identifier
59446, 2024-066E
Orbit
LEO
Country
Flag of USUS
Related business
Manufacturer
UTIAS-SFL
Mission
Operational Commercial Sigint
Bus & Motor
HAWK2G, Unknown motor
Mass
31 kg wet, 30 kg dry
Launch date (UTC)
2024-04-07 (2 years ago)
Launch vehicle
FALCON 9
Launch site
Air Force Eastern Test Range (AFETR)
Object type
Payload
Rocket body
Debris
Shape & HBR
Box + 2 Pan, 1.0 m
Radar Cross Section
0.240 m², Medium (>0.1 m² and < 1m²)

Expand to show TLE details & history
Last TLE update: 15 hours ago

TLE from 15 hours ago
0 HAWK-9A
1 59446U 24066E   26036.96804849  .00002899  00000-0  25696-3 0  9990
2 59446  45.6072 235.2283 0001934  60.2163 299.8911 14.98615253100143
Epoch: 2026-02-05T23:13Z
TLE epoch observation values (Epoch: 2026-02-05T23:13:59.389Z)
Latitude
0.00003°
Longitude
110.61821°
Altitude
570.57 km
Speed
7.578 km/s
True Right ascension
15h 40m 54s
True Declination
0° 00' 00"
Sunlit
Object was in daylight at epoch
Visualization orbit readout
Latitude
Unknown
Longitude
Unknown
Altitude
Unknown
Speed
Unknown
Apparent Right ascension
Unknown
Apparent Declination
Unknown
Sunlit
N/A
Visualization observer readout
Local Sidereal Time
16:07:45
Azimuth
Unknown
Elevation
Unknown
Doppler factor
Unknown
Orbital elements
Apogee altitude
574.006 km
Perigee altitude
571.318 km
Semi-major axis
6,950.799 km
Eccentricity
0.00019
Inclination
45.6072°
RAAN
235.2283°
Arg. of periapsis
60.2163°
True anomaly
299.87188°
Mean anomaly
299.8911°
Eccentric anomaly
299.88149°
Mean motion
3.74534 °/min
Orbital period
96.12 mins
BSTAR
0.00025696
Loading maneuver chart data...
Computing Atmospheric mass density...
Loading historical data...
Loading historical data...
Loading historical data...
Loading historical data...
Loading historical data...
Loading historical data...
Loading historical data...

Documentation

Showing up to 5 results
|